Regional Weather Roundup
Issued by NWS

Home | Current Version | Previous Version | Text Only | Print | Product List | Glossary Off
Versions: 1 2 3 4 5 6 7 8 9 10 11 12 13 14 15 16 17 18 19 20 21 22 23 24 25 26 27 28 29 30 31 32 33 34 35 36 37 38 39 40 41 42 43 44 45 46 47 48 49 50

363
ASUS45 KPSR 261910
RWRAZ

ARIZONA HOURLY REGIONAL WEATHER ROUNDUP
NATIONAL WEATHER SERVICE PHOENIX AZ
1200 PM MST THU MAY 26 2016

NOTE: FAIR INDICATES FEW OR NO CLOUDS BELOW 12,000 FEET WITH NO
SIGNIFICANT WEATHER AND/OR OBSTRUCTIONS TO VISIBILITY.

AZZ001>003-036-262000-
NORTHWEST ARIZONA

CITY           SKY/WX    TMP DP  RH WIND       PRES   REMARKS
BULLHEAD CITY  SUNNY     82  34  17 W5        29.92F
KINGMAN        SUNNY     73  27  18 S12G18    29.98F
$$

AZZ004>008-015-016-018-262000-
NORTH CENTRAL ARIZONA

CITY           SKY/WX    TMP DP  RH WIND       PRES   REMARKS
GRAND CANYON   CLOUDY    58  24  27 VRB3      30.04F
WILLIAMS       MOSUNNY   59  23  25 SW8G18    30.14S
PRESCOTT       MOSUNNY   65  22  19 NW7       30.03S
FLAGSTAFF      PTSUNNY   54  24  31 W14G24    30.06F
PAYSON         SUNNY     64  21  19 SW8G17    30.06F
PAGE           PTSUNNY   71  28  20 NW15      29.92S
$$

AZZ009>014-017-262000-
NORTHEAST ARIZONA

CITY           SKY/WX    TMP DP  RH WIND       PRES   REMARKS
WINSLOW        LGT RAIN  64  28  25 SW8G26    30.00S
SAINT JOHNS    MOSUNNY   64  19  17 W10G21    30.00F
WINDOW ROCK    PTSUNNY   57  18  21 W12G21    30.02S
SHOW LOW       MOSUNNY   55  18  22 W12       30.07S
$$

AZZ023-262000-
GREATER PHOENIX AREA

CITY           SKY/WX    TMP DP  RH WIND       PRES   REMARKS
PHOENIX        MOSUNNY   78  35  21 VRB7      29.92F
BUCKEYE        SUNNY     77  36  22 S6        29.95F
GLENDALE       SUNNY     81  37  21 SW10G17   29.94F
LUKE AFB       MOSUNNY   79  38  22 SW14G21   29.92F
DEER VALLEY    SUNNY     76  36  23 SW6       29.93F
SCOTTSDALE     SUNNY     78  33  19 W9G16     29.95F
MESA-GATEWAY   MOSUNNY   75  36  23 W8        29.94F
CHANDLER       MOSUNNY   77  34  20 S7        29.93F
$$

AZZ027-028-262000-
SOUTHWEST MARICOPA COUNTY AND PINAL COUNTY

CITY           SKY/WX    TMP DP  RH WIND       PRES   REMARKS
CASA GRANDE    SUNNY     79  34  19 NW5       29.95F
GILA BEND      MOSUNNY   79  35  20 VRB5      29.92F
$$

AZZ503-504-507>509-262000-
SOUTHEAST ARIZONA

CITY           SKY/WX    TMP DP  RH WIND       PRES   REMARKS
TUCSON         SUNNY     75  21  13 VRB6      29.99F
DAVIS-MONTHAN  MOSUNNY   74  21  13 NW10      29.97F
RYAN FIELD     SUNNY     75  23  14 S5        29.98F
NOGALES        SUNNY     72  15  11 CALM      30.00F
SIERRA VISTA   SUNNY     73  12   9 W16       30.02F
DOUGLAS        SUNNY     74  14  10 SW10G25   29.99F
SAFFORD        SUNNY     75  19  12 W10G23    29.94F
$$

AZZ020-021-025-026-031-262000-
SOUTHWEST ARIZONA

CITY           SKY/WX    TMP DP  RH WIND       PRES   REMARKS
YUMA           SUNNY     81  41  24 VRB3      29.93F
$$

CAZ031-033-041-043-047-048-061-262000-
SOUTHERN CALIFORNIA

CITY           SKY/WX    TMP DP  RH WIND       PRES   REMARKS
DOWNTOWN L.A.  PTSUNNY   69  53  56 VRB3      30.04F
L.A. AIRPORT   MOSUNNY   66  52  60 SW13      30.06S
SAN DIEGO      PTSUNNY   66  52  60 SW10      30.08F
BURBANK        SUNNY     70  49  47 CALM      30.04F
ONTARIO        MOSUNNY   69  47  45 SW9       30.04F
RIVERSIDE      SUNNY     69  45  41 CALM      30.04F
PALM SPRINGS   MOSUNNY   81  41  24 NW12G23   29.92F
EL CENTRO NAS  MOSUNNY   82  35  18 CALM      29.93F
IMPERIAL       SUNNY     83  41  22 W7        29.91F
BLYTHE         SUNNY     81  42  25 SW6       29.91F
NEEDLES        SUNNY     85  36  17 NW5       29.90F
$$

NVZ020-UTZ003-262000-
SOUTHERN NEVADA-UTAH

CITY           SKY/WX    TMP DP  RH WIND       PRES   REMARKS
LAS VEGAS      MOSUNNY   78  33  19 S7        29.90F
SALT LAKE CITY MOSUNNY   67  40  37 W12G22    29.97F
$$

NMZ009-TXZ055-262000-
NEW MEXICO-WEST TEXAS

CITY           SKY/WX    TMP DP  RH WIND       PRES   REMARKS
ALBUQUERQUE    MOSUNNY   72  11   9 SW17G25   29.90F
EL PASO        MOSUNNY   82  31  15 SW17G33   29.92F
$$


........................KEY........................
SKY/WX - SKY CONDITION/WEATHER
TMP    - TEMPERATURE IN FAHRENHEIT
DP     - DEW POINT IN FAHRENHEIT
RH     - RELATIVE HUMIDITY IN PERCENT
WIND   - DIRECTION AND SPEED IN MILES PER HOUR (MPH)
VRB    - VARIABLE WIND DIRECTION
PRES   - MEAN SEA LEVEL PRESSURE IN INCHES OF MERCURY
         F - FALLING PRESSURE   R - RISING PRESSURE
         S - STEADY PRESSURE
VSB    - VISIBILITY IN MILES
HX     - HEAT INDEX IN FAHRENHEIT
WCI    - WIND CHILL INDEX IN FAHRENHEIT
TC     - TEMPERATURE IN CELSIUS WHICH IS ALSO KNOWN AS
         TEMPERATURE IN CENTIGRADE
AFB    - AIR FORCE BASE
         LUKE AFB IS LUKE AIR FORCE BASE
         DAVIS-MONTHAN IS DAVIS-MONTHAN AIR FORCE BASE
NAS    - NAVAL AIR STATION
         EL CENTRO NAS IS EL CENTRO NAVAL AIR STATION
N/A    - NOT AVAILABLE





USA.gov is the U.S. government's official web portal to all federal, state and local government web resources and services.